Date String (YYYY-MM-DD hh:mm:ss) UTC,Instrument flags,Ambient pressure (hPa),Sample flow (lpm),Bypass flow (lpm),Sample temperature (°C),Ambient temperature (°C),ASC tube jacket temperature (°C),LED temperature (°C),Box temperature (°C),Sample RH (%),Span deviation,Mass concentration (μg/m³),Mass concentration (μg/m³),Mass concentration (μg/m³)
DateTimeUTC,F1_M11,P_M11,Q1_M11,Q2_M11,T1_M11,T2_M11,T3_M11,T4_M11,T5_M11,U1_M11,ZSPAN_M11,X0_M11,X2_M11,X1_M11
2021-12-26 14:00:00,,0809.7,5.01,0.00,22.6,22.1,00.0,31.6,24.3,07.9,0000.0,0001.35,0000.88,0000.72
2021-12-26 14:01:00,,0809.7,5.00,0.00,22.6,22.0,00.0,31.6,24.3,07.9,0000.0,0001.35,0000.88,0000.72
2021-12-26 14:02:00,,0809.7,4.99,0.00,22.6,22.0,00.0,31.6,24.2,07.9,0000.0,0001.24,0000.86,0000.71
2021-12-26 14:03:00,,0809.7,5.01,0.00,22.6,21.9,00.0,31.6,24.2,07.9,0000.0,0001.15,0000.84,0000.70
2021-12-26 14:04:00,,0809.7,4.99,0.00,22.6,21.9,00.0,31.6,24.2,07.9,0000.0,0001.14,0000.84,0000.71
2021-12-26 14:05:00,,0809.8,5.00,0.00,22.6,21.9,00.0,31.6,24.2,07.9,0000.0,0001.10,0000.82,0000.70
2021-12-26 14:06:00,,0809.9,5.00,0.00,22.5,21.8,00.0,31.6,24.2,08.0,0000.0,0001.14,0000.85,0000.70
2021-12-26 14:07:00,,0810.0,5.00,0.00,22.5,21.8,00.0,31.6,24.1,08.0,0000.0,0001.15,0000.85,0000.70
2021-12-26 14:08:00,,0809.8,5.01,0.00,22.5,21.8,00.0,31.6,24.1,08.1,0000.0,0001.16,0000.86,0000.70
2021-12-26 14:09:00,,0809.7,4.98,0.00,22.5,21.8,00.0,31.6,24.1,08.1,0000.0,0001.28,0000.88,0000.71
2021-12-26 14:10:00,,0809.6,5.00,0.00,22.5,21.7,00.0,31.5,24.1,08.1,0000.0,0001.33,0000.90,0000.72
2021-12-26 14:11:00,,0809.5,4.99,0.00,22.5,21.7,00.0,31.5,24.1,08.0,0000.0,0001.29,0000.87,0000.71
2021-12-26 14:12:00,,0809.4,5.01,0.00,22.4,21.7,00.0,31.5,24.0,07.9,0000.0,0001.29,0000.87,0000.71
2021-12-26 14:13:00,,0809.5,5.00,0.00,22.4,21.6,00.0,31.5,24.0,07.9,0000.0,0001.32,0000.89,0000.71
2021-12-26 14:14:00,,0809.6,4.99,0.00,22.4,21.6,00.0,31.5,24.0,07.9,0000.0,0001.31,0000.89,0000.71
2021-12-26 14:15:00,,0809.8,5.00,0.00,22.4,21.6,00.0,31.5,24.0,07.9,0000.0,0001.31,0000.89,0000.70
2021-12-26 14:16:00,,0810.0,5.01,0.00,22.4,22.0,00.0,31.5,24.1,08.1,0000.0,0001.39,0000.92,0000.70
2021-12-26 14:17:00,,0810.0,4.99,0.00,22.5,22.6,00.0,31.5,24.4,08.2,0000.0,0001.42,0000.93,0000.71
2021-12-26 14:18:00,,0809.7,4.99,0.00,22.7,23.0,00.0,31.6,24.6,08.0,0000.0,0001.47,0000.95,0000.73
2021-12-26 14:19:00,,0809.6,5.00,0.00,22.7,22.9,00.0,31.6,24.5,07.9,0000.0,0001.58,0000.98,0000.74
2021-12-26 14:20:00,,0809.6,5.01,0.00,22.7,22.6,00.0,31.6,24.4,07.8,0000.0,0002.20,0000.98,0000.74
2021-12-26 14:21:00,,0809.6,5.00,0.00,22.7,22.5,00.0,31.6,24.3,07.8,0000.0,0002.85,0000.96,0000.74
2021-12-26 14:22:00,,0809.6,5.00,0.00,22.6,22.4,00.0,31.6,24.3,07.9,0000.0,0002.85,0000.96,0000.75
2021-12-26 14:23:00,,0809.7,5.00,0.00,22.6,22.2,00.0,31.6,24.3,08.0,0000.0,0002.85,0000.97,0000.75
2021-12-26 14:24:00,,0809.7,4.99,0.00,22.6,22.1,00.0,31.6,24.2,08.1,0000.0,0002.81,0000.95,0000.76
2021-12-26 14:25:00,,0809.7,5.02,0.00,22.6,22.1,00.0,31.6,24.2,08.1,0000.0,0002.78,0000.94,0000.77
2021-12-26 14:26:00,,0809.8,5.00,0.00,22.5,21.9,00.0,31.6,24.1,08.0,0000.0,0002.81,0000.96,0000.79
2021-12-26 14:27:00,,0809.7,5.01,0.00,22.5,21.9,00.0,31.6,24.1,08.0,0000.0,0002.77,0000.95,0000.80
2021-12-26 14:28:00,,0809.7,5.01,0.00,22.5,21.8,00.0,31.5,24.1,08.0,0000.0,0002.70,0000.92,0000.80
2021-12-26 14:29:00,,0809.7,4.99,0.00,22.5,21.8,00.0,31.5,24.1,08.1,0000.0,0002.71,0000.93,0000.79
2021-12-26 14:30:00,,0809.6,5.00,0.00,22.4,21.7,00.0,31.5,24.1,08.1,0000.0,0002.56,0000.89,0000.78
2021-12-26 14:31:00,,0809.6,5.01,0.00,22.4,21.7,00.0,31.5,24.0,08.2,0000.0,0002.38,0000.86,0000.78
2021-12-26 14:32:00,,0809.5,4.99,0.00,22.4,21.7,00.0,31.5,24.0,08.3,0000.0,0001.06,0000.85,0000.77
2021-12-26 14:33:00,,0809.6,5.01,0.00,22.4,21.6,00.0,31.5,24.0,08.4,0000.0,0001.10,0000.87,0000.78
2021-12-26 14:34:00,,0809.6,4.99,0.00,22.4,21.6,00.0,31.5,24.0,08.4,0000.0,0001.06,0000.85,0000.77
2021-12-26 14:35:00,,0809.5,5.00,0.00,22.4,21.6,00.0,31.5,24.0,08.5,0000.0,0002.43,0000.90,0000.78
2021-12-26 14:36:00,,0809.6,4.99,0.00,22.4,21.6,00.0,31.4,24.0,08.7,0000.0,0002.50,0000.92,0000.77
2021-12-26 14:37:00,,0809.7,4.99,0.00,22.3,21.6,00.0,31.4,24.0,08.7,0000.0,0002.48,0000.91,0000.76
2021-12-26 14:38:00,,0809.7,5.00,0.00,22.3,21.6,00.0,31.4,24.0,08.7,0000.0,0002.47,0000.90,0000.75
2021-12-26 14:39:00,,0809.8,5.01,0.00,22.3,21.6,00.0,31.4,24.0,08.7,0000.0,0002.52,0000.92,0000.75
2021-12-26 14:40:00,,0809.8,5.00,0.00,22.3,21.8,00.0,31.4,24.0,08.5,0000.0,0002.53,0000.91,0000.75
2021-12-26 14:41:00,,0809.7,5.00,0.00,22.4,22.4,00.0,31.5,24.3,08.4,0000.0,0002.55,0000.91,0000.74
2021-12-26 14:42:00,,0809.9,5.00,0.00,22.6,23.2,00.0,31.5,24.5,08.5,0000.0,0002.59,0000.93,0000.75
2021-12-26 14:43:00,,0809.9,5.01,0.00,22.7,23.3,00.0,31.5,24.7,08.6,0000.0,0003.11,0000.94,0000.75
2021-12-26 14:44:00,,0810.0,5.00,0.00,22.7,23.1,00.0,31.5,24.6,08.6,0000.0,0003.46,0000.92,0000.74
2021-12-26 14:45:00,,0810.0,4.99,0.00,22.7,22.8,00.0,31.5,24.4,08.5,0000.0,0003.55,0000.96,0000.76
2021-12-26 14:46:00,,0810.0,5.01,0.00,22.6,22.5,00.0,31.5,24.3,08.6,0000.0,0002.35,0000.96,0000.78
2021-12-26 14:47:00,,0810.0,4.99,0.00,22.5,22.3,00.0,31.5,24.2,08.4,0000.0,0002.42,0000.98,0000.83
2021-12-26 14:48:00,,0810.0,5.02,0.00,22.5,22.1,00.0,31.5,24.1,08.5,0000.0,0002.50,0001.03,0000.86
2021-12-26 14:49:00,,0809.9,5.00,0.00,22.5,22.0,00.0,31.5,24.1,08.5,0000.0,0002.56,0001.06,0000.88
2021-12-26 14:50:00,,0809.9,4.99,0.00,22.5,21.9,00.0,31.5,24.1,08.4,0000.0,0002.60,0001.08,0000.88
2021-12-26 14:51:00,,0809.9,5.01,0.00,22.5,21.9,00.0,31.5,24.1,08.5,0000.0,0002.59,0001.07,0000.89
2021-12-26 14:52:00,,0809.9,4.99,0.00,22.5,21.9,00.0,31.5,24.1,08.4,0000.0,0002.60,0001.08,0000.89
2021-12-26 14:53:00,,0810.0,5.00,0.00,22.5,21.8,00.0,31.5,24.1,08.4,0000.0,0002.61,0001.09,0000.89
2021-12-26 14:54:00,,0810.0,5.00,0.00,22.5,21.8,00.0,31.5,24.1,08.5,0000.0,0002.13,0001.09,0000.89
2021-12-26 14:55:00,,0809.9,5.01,0.00,22.4,21.8,00.0,31.5,24.1,08.5,0000.0,0001.87,0001.11,0000.90
2021-12-26 14:56:00,,0809.9,4.99,0.00,22.4,21.8,00.0,31.5,24.1,08.5,0000.0,0002.02,0001.09,0000.88
2021-12-26 14:57:00,,0809.9,5.01,0.00,22.4,21.8,00.0,31.5,24.1,08.4,0000.0,0002.37,0001.04,0000.85
2021-12-26 14:58:00,,0809.9,4.99,0.00,22.4,21.8,00.0,31.5,24.1,08.8,0000.0,0002.22,0000.96,0000.80
2021-12-26 14:59:00,,0809.8,5.01,0.00,22.4,21.7,00.0,31.5,24.1,09.1,0000.0,0002.12,0000.90,0000.75
